Terminal Aerodrome Forecast
Issued by NWS Omaha/Valley, NE

Home | Current Version | Previous Version | Text Only | Print | Product List | Glossary On
Versions: 1 2 3 4 5 6 7 8 9 10 11 12 13 14 15 16 17 18 19 20 21 22 23 24 25 26 27 28 29 30 31 32 33 34 35 36 37 38 39
000
FTUS43 KOAX 101733
TAFOMA
TAF
KOMA 101733Z 1018/1118 16008KT P6SM SCT120
     FM102300 06008KT P6SM SCT015
      TEMPO 1023/1102 OVC015
     FM110200 04007KT P6SM OVC015=

USA.gov is the U.S. government's official web portal to all federal, state and local government web resources and services.